Flag for Rwanda Weather past 2 weeks in Kigali, Rwanda

Now
66 °F

Passing clouds.


Feels Like: 66 °F
Forecast: 60 / 82 °F
Wind: 3 mph from Northeast

Location: Kigali Airport

Current Time: Oct 25, 2014 at 11:15:37 PM

Latest Report: Oct 25, 2014 at 11:00 PM


Visibility: N/A

Pressure: 30.12 "Hg

Humidity: 100%

Dew point: 66 °F

Location of KigaliLocation

Historic Weather in Kigali — Graph

°F

Kigali temperature yesterday

Maximum temperature yesterday: 77 °F (at 11:00 AM)
Minimum temperature yesterday: 61 °F (at 6:00 AM)
Average temperature yesterday: 68 °F

Past Weeks' High & Low Weather Summary

 TemperatureHumidityPressure
High86 °F (Oct 17, 1:30 PM)100% (Oct 11, 5:30 AM)30.24 "Hg (Oct 11, 5:30 AM)
Low34 °F (Oct 20, 10:00 AM)37% (Oct 11, 4:30 PM)29.98 "Hg (Oct 17, 3:00 PM)
Average70 °F79%30.11 "Hg
* Reported Oct 10 10:00 PM — Oct 25 10:00 PM, Kigali, Weather by CustomWeather, © 2014

Note: Actual official high and low records may vary slightly from our data, if they occured in-between our weather recording intervals... More about our weather records

Advertising

Kigali weather history for previous 24 hours

 ConditionsComfort  
Time TempWeatherWind HumidityBarometerVisibility
10:00 PM
Oct 25
68 °FPassing clouds.No wind88%30.12 "HgN/A
9:30 PM68 °FPassing clouds.No wind88%30.12 "HgN/A
9:00 PM68 °FPassing clouds.No wind88%30.12 "HgN/A
8:30 PM70 °FPassing clouds.7 mph88%30.12 "HgN/A
8:00 PM70 °FPassing clouds.8 mph83%30.09 "HgN/A
7:00 PM73 °FPassing clouds.3 mph74%30.09 "HgN/A
6:30 PM73 °FPassing clouds.5 mph74%30.09 "HgN/A
6:00 PM75 °FPassing clouds.5 mph69%30.07 "HgN/A
5:30 PM77 °FScattered clouds.5 mph61%30.04 "HgN/A
5:00 PM81 °FScattered clouds.7 mph54%30.04 "HgN/A
4:30 PM79 °FScattered clouds.10 mph61%30.04 "HgN/A
4:00 PM81 °FScattered clouds.6 mph58%30.04 "HgN/A
3:30 PM82 °FScattered clouds.8 mph55%30.04 "HgN/A
3:00 PM82 °FScattered clouds.12 mph51%30.04 "HgN/A
1:30 PM81 °FPartly sunny.15 mph58%30.07 "HgN/A
1:00 PM82 °FPartly sunny.8 mph55%N/AN/A
12:30 PM81 °FScattered clouds.9 mph58%N/AN/A
12:00 PM81 °FPartly sunny.5 mph54%N/AN/A
11:30 AM79 °FScattered clouds.5 mph70%N/AN/A
11:00 AM79 °FScattered clouds.6 mph65%N/AN/A
10:30 AM79 °FScattered clouds.5 mph65%N/AN/A
10:00 AM77 °FScattered clouds.3 mph69%30.18 "HgN/A
9:30 AM75 °FPassing clouds.3 mph74%30.18 "HgN/A
9:00 AM72 °FScattered clouds.3 mph83%30.18 "HgN/A
8:30 AM73 °FPassing clouds.3 mph83%30.15 "HgN/A
8:00 AM70 °FScattered clouds.3 mph88%30.15 "Hg5 mi
7:00 AM64 °FScattered clouds.3 mph100%30.12 "Hg5 mi
6:30 AM63 °FScattered clouds.3 mph100%30.12 "Hg5 mi
6:00 AM63 °FScattered clouds.No wind100%30.09 "HgN/A
5:30 AM63 °FPassing clouds.No wind100%30.09 "HgN/A
5:00 AM63 °FPassing clouds.No wind100%30.09 "HgN/A
4:30 AM63 °FPassing clouds.No wind100%30.09 "HgN/A
4:00 AM63 °FPassing clouds.3 mph100%30.09 "HgN/A
3:30 AM63 °FPassing clouds.3 mph100%30.09 "HgN/A
3:00 AM64 °FPassing clouds.3 mph100%30.09 "HgN/A
2:30 AM64 °FPassing clouds.No wind100%30.09 "HgN/A
2:00 AM64 °FPassing clouds.No wind100%30.09 "HgN/A
1:30 AM66 °FPassing clouds.No wind100%30.09 "HgN/A
1:00 AM66 °FPartly cloudy.No wind100%30.12 "HgN/A
12:30 AM66 °FPartly cloudy.No wind100%30.12 "HgN/A
12:00 AM66 °FPassing clouds.No wind100%30.12 "HgN/A
11:30 PM
Oct 24
68 °FPassing clouds.No wind94%30.15 "HgN/A
11:00 PM68 °FPassing clouds.3 mph100%30.15 "HgN/A
Weather by CustomWeather, © 2014

See weather overviewHow to use our weather pages